Time,TemperatureF,DewpointF,PressureIn,WindDirection,WindDirectionDegrees,WindSpeedMPH,WindSpeedGustMPH,Humidity,HourlyPrecipIn,Conditions,Clouds,dailyrainin,SolarRadiationWatts/m^2,SoftwareType,DateUTC
2013-04-13 00:12:00,36.6,35.0,29.84,ENE,67,1.0,-999.0,94,-99.99,,,0.00,0,weatherlink.com 1.10,2013-04-13 04:12:00,
2013-04-13 00:27:00,36.3,35.0,29.84,ENE,67,0.0,-999.0,93,-99.99,,,0.00,0,weatherlink.com 1.10,2013-04-13 04:27:00,
2013-04-13 00:42:00,36.4,35.0,29.86,ENE,67,0.0,-999.0,94,-99.99,,,0.00,0,weatherlink.com 1.10,2013-04-13 04:42:00,
2013-04-13 00:57:00,36.5,35.0,29.85,ENE,67,0.0,-999.0,94,-99.99,,,0.00,0,weatherlink.com 1.10,2013-04-13 04:57:00,
2013-04-13 01:12:00,36.4,35.0,29.86,ENE,67,0.0,-999.0,94,-99.99,,,0.01,0,weatherlink.com 1.10,2013-04-13 05:12:00,
2013-04-13 01:27:00,36.6,35.0,29.85,ENE,67,0.0,-999.0,94,-99.99,,,0.01,0,weatherlink.com 1.10,2013-04-13 05:27:00,
2013-04-13 01:42:00,36.6,35.0,29.85,WSW,245,4.0,-999.0,94,-99.99,,,0.01,0,weatherlink.com 1.10,2013-04-13 05:42:00,
2013-04-13 01:57:00,36.8,35.0,29.86,West,259,3.0,-999.0,94,-99.99,,,0.01,0,weatherlink.com 1.10,2013-04-13 05:57:00,
2013-04-13 02:12:00,36.9,35.0,29.86,NW,310,1.0,-999.0,94,-99.99,,,0.01,0,weatherlink.com 1.10,2013-04-13 06:12:00,
2013-04-13 02:27:00,36.8,35.0,29.86,NW,310,0.0,-999.0,94,-99.99,,,0.02,0,weatherlink.com 1.10,2013-04-13 06:27:00,
2013-04-13 02:42:00,36.8,35.0,29.85,NW,310,0.0,-999.0,94,-99.99,,,0.02,0,weatherlink.com 1.10,2013-04-13 06:42:00,
2013-04-13 02:57:00,36.8,35.0,29.84,NW,310,0.0,-999.0,93,-99.99,,,0.02,0,weatherlink.com 1.10,2013-04-13 06:57:00,
2013-04-13 03:27:00,36.6,35.0,29.84,NW,310,0.0,-999.0,93,-99.99,,,0.02,0,weatherlink.com 1.10,2013-04-13 07:27:00,
2013-04-13 03:42:00,36.6,35.0,29.83,NW,310,0.0,-999.0,93,-99.99,,,0.02,0,weatherlink.com 1.10,2013-04-13 07:42:00,
2013-04-13 03:57:00,36.5,35.0,29.83,NW,310,0.0,-999.0,94,-99.99,,,0.02,0,weatherlink.com 1.10,2013-04-13 07:57:00,
2013-04-13 04:12:00,36.5,35.0,29.84,West,273,0.0,-999.0,94,-99.99,,,0.02,0,weatherlink.com 1.10,2013-04-13 08:12:00,
2013-04-13 04:27:00,36.4,35.0,29.84,West,271,0.0,-999.0,94,-99.99,,,0.02,0,weatherlink.com 1.10,2013-04-13 08:27:00,
2013-04-13 04:57:00,36.1,35.0,29.84,West,271,0.0,-999.0,94,-99.99,,,0.02,0,weatherlink.com 1.10,2013-04-13 08:57:00,
2013-04-13 05:12:00,36.0,34.0,29.84,SW,222,2.0,-999.0,93,-99.99,,,0.02,0,weatherlink.com 1.10,2013-04-13 09:12:00,
2013-04-13 05:27:00,36.0,34.0,29.84,WNW,288,0.0,-999.0,92,-99.99,,,0.02,0,weatherlink.com 1.10,2013-04-13 09:27:00,
2013-04-13 05:42:00,36.1,34.0,29.85,WSW,244,4.0,-999.0,90,-99.99,,,0.02,0,weatherlink.com 1.10,2013-04-13 09:42:00,
2013-04-13 05:57:00,35.9,33.0,29.84,WSW,257,0.0,-999.0,90,-99.99,,,0.02,0,weatherlink.com 1.10,2013-04-13 09:57:00,
2013-04-13 06:12:00,35.8,33.0,29.85,SW,229,2.0,-999.0,90,-99.99,,,0.02,0,weatherlink.com 1.10,2013-04-13 10:12:00,
2013-04-13 06:27:00,35.7,33.0,29.86,SSW,193,3.0,-999.0,90,-99.99,,,0.02,0,weatherlink.com 1.10,2013-04-13 10:27:00,
2013-04-13 06:42:00,35.8,33.0,29.86,SW,233,1.0,-999.0,88,-99.99,,,0.02,0,weatherlink.com 1.10,2013-04-13 10:42:00,
2013-04-13 06:57:00,36.0,32.0,29.86,WSW,245,2.0,-999.0,86,-99.99,,,0.02,14,weatherlink.com 1.10,2013-04-13 10:57:00,
2013-04-13 07:12:00,36.0,32.0,29.87,SW,234,1.0,-999.0,85,-99.99,,,0.02,18,weatherlink.com 1.10,2013-04-13 11:12:00,
2013-04-13 07:27:00,36.1,32.0,29.87,SW,223,1.0,-999.0,85,-99.99,,,0.02,26,weatherlink.com 1.10,2013-04-13 11:27:00,
2013-04-13 07:42:00,36.1,32.0,29.87,SSW,198,2.0,-999.0,85,-99.99,,,0.02,33,weatherlink.com 1.10,2013-04-13 11:42:00,
2013-04-13 08:27:00,37.2,32.0,29.88,WSW,248,3.0,-999.0,81,-99.99,,,0.02,81,weatherlink.com 1.10,2013-04-13 12:27:00,
2013-04-13 08:42:00,37.6,32.0,29.88,SW,221,2.0,-999.0,81,-99.99,,,0.02,135,weatherlink.com 1.10,2013-04-13 12:42:00,
2013-04-13 09:27:00,37.9,32.0,29.89,WSW,250,10.0,-999.0,79,-99.99,,,0.02,179,weatherlink.com 1.10,2013-04-13 13:27:00,
2013-04-13 09:57:00,39.3,33.0,29.89,WSW,255,4.0,-999.0,77,-99.99,,,0.02,264,weatherlink.com 1.10,2013-04-13 13:57:00,
2013-04-13 10:12:00,40.3,33.0,29.89,WSW,241,3.0,-999.0,76,-99.99,,,0.02,369,weatherlink.com 1.10,2013-04-13 14:12:00,
2013-04-13 10:27:00,40.7,33.0,29.89,NW,312,2.0,-999.0,74,-99.99,,,0.02,418,weatherlink.com 1.10,2013-04-13 14:27:00,
2013-04-13 10:42:00,41.1,33.0,29.89,SW,217,7.0,-999.0,74,-99.99,,,0.02,348,weatherlink.com 1.10,2013-04-13 14:42:00,
2013-04-13 11:12:00,42.0,34.0,29.90,WNW,289,4.0,-999.0,72,-99.99,,,0.02,374,weatherlink.com 1.10,2013-04-13 15:12:00,
2013-04-13 11:27:00,42.4,34.0,29.90,West,265,4.0,-999.0,71,-99.99,,,0.02,313,weatherlink.com 1.10,2013-04-13 15:27:00,
2013-04-13 12:12:00,43.1,34.0,29.89,North,355,6.0,-999.0,69,-99.99,,,0.02,476,weatherlink.com 1.10,2013-04-13 16:12:00,
2013-04-13 12:27:00,43.4,33.0,29.88,WSW,249,5.0,-999.0,67,-99.99,,,0.02,399,weatherlink.com 1.10,2013-04-13 16:27:00,
2013-04-13 13:12:00,44.2,33.0,29.88,West,259,2.0,-999.0,66,-99.99,,,0.02,221,weatherlink.com 1.10,2013-04-13 17:12:00,
2013-04-13 13:27:00,44.4,33.0,29.88,West,279,3.0,-999.0,65,-99.99,,,0.02,232,weatherlink.com 1.10,2013-04-13 17:27:00,
2013-04-13 13:42:00,44.8,34.0,29.88,WSW,253,2.0,-999.0,65,-99.99,,,0.02,388,weatherlink.com 1.10,2013-04-13 17:42:00,
2013-04-13 14:12:00,45.5,32.0,29.87,SE,140,4.0,-999.0,60,-99.99,,,0.02,292,weatherlink.com 1.10,2013-04-13 18:12:00,
2013-04-13 14:27:00,45.5,33.0,29.87,WNW,295,6.0,-999.0,61,-99.99,,,0.02,142,weatherlink.com 1.10,2013-04-13 18:27:00,
2013-04-13 14:42:00,44.9,32.0,29.87,South,173,5.0,-999.0,62,-99.99,,,0.02,146,weatherlink.com 1.10,2013-04-13 18:42:00,
2013-04-13 14:57:00,44.8,33.0,29.87,SW,220,5.0,-999.0,63,-99.99,,,0.02,202,weatherlink.com 1.10,2013-04-13 18:57:00,
2013-04-13 15:12:00,45.8,33.0,29.86,SW,234,1.0,-999.0,62,-99.99,,,0.02,186,weatherlink.com 1.10,2013-04-13 19:12:00,
2013-04-13 15:27:00,45.2,33.0,29.87,SW,236,4.0,-999.0,62,-99.99,,,0.02,176,weatherlink.com 1.10,2013-04-13 19:27:00,
2013-04-13 15:42:00,45.4,32.0,29.87,WSW,238,6.0,-999.0,60,-99.99,,,0.02,153,weatherlink.com 1.10,2013-04-13 19:42:00,
2013-04-13 15:57:00,45.1,32.0,29.87,SW,230,5.0,-999.0,61,-99.99,,,0.02,81,weatherlink.com 1.10,2013-04-13 19:57:00,
2013-04-13 16:12:00,45.0,33.0,29.88,SW,223,4.0,-999.0,62,-99.99,,,0.02,84,weatherlink.com 1.10,2013-04-13 20:12:00,
2013-04-13 16:27:00,45.0,32.0,29.88,SSW,200,1.0,-999.0,61,-99.99,,,0.02,81,weatherlink.com 1.10,2013-04-13 20:27:00,
2013-04-13 16:42:00,44.8,32.0,29.88,SSW,200,2.0,-999.0,62,-99.99,,,0.02,46,weatherlink.com 1.10,2013-04-13 20:42:00,
2013-04-13 16:57:00,44.5,32.0,29.88,SW,228,4.0,-999.0,63,-99.99,,,0.02,33,weatherlink.com 1.10,2013-04-13 20:57:00,
2013-04-13 17:12:00,44.3,32.0,29.87,SW,236,4.0,-999.0,63,-99.99,,,0.02,142,weatherlink.com 1.10,2013-04-13 21:12:00,
2013-04-13 17:27:00,45.1,33.0,29.88,WNW,290,3.0,-999.0,63,-99.99,,,0.02,111,weatherlink.com 1.10,2013-04-13 21:27:00,
2013-04-13 17:42:00,44.8,33.0,29.89,SSW,213,2.0,-999.0,63,-99.99,,,0.02,53,weatherlink.com 1.10,2013-04-13 21:42:00,
2013-04-13 17:57:00,44.4,33.0,29.90,SW,219,5.0,-999.0,64,-99.99,,,0.02,30,weatherlink.com 1.10,2013-04-13 21:57:00,
2013-04-13 18:12:00,44.0,32.0,29.91,NW,313,3.0,-999.0,64,-99.99,,,0.02,25,weatherlink.com 1.10,2013-04-13 22:12:00,
2013-04-13 18:27:00,43.5,33.0,29.92,West,266,2.0,-999.0,66,-99.99,,,0.02,16,weatherlink.com 1.10,2013-04-13 22:27:00,
2013-04-13 18:42:00,43.2,33.0,29.93,West,280,7.0,-999.0,67,-99.99,,,0.02,21,weatherlink.com 1.10,2013-04-13 22:42:00,
2013-04-13 18:57:00,42.9,33.0,29.93,West,264,4.0,-999.0,68,-99.99,,,0.02,11,weatherlink.com 1.10,2013-04-13 22:57:00,
2013-04-13 19:12:00,42.5,33.0,29.93,West,269,2.0,-999.0,69,-99.99,,,0.02,5,weatherlink.com 1.10,2013-04-13 23:12:00,
2013-04-13 19:27:00,41.7,34.0,29.94,WNW,292,0.0,-999.0,73,-99.99,,,0.02,0,weatherlink.com 1.10,2013-04-13 23:27:00,
2013-04-13 19:42:00,41.0,34.0,29.94,NW,304,1.0,-999.0,76,-99.99,,,0.02,0,weatherlink.com 1.10,2013-04-13 23:42:00,
2013-04-13 19:57:00,40.1,33.0,29.95,NW,304,0.0,-999.0,77,-99.99,,,0.02,0,weatherlink.com 1.10,2013-04-13 23:57:00,
2013-04-13 20:12:00,39.6,33.0,29.95,West,278,0.0,-999.0,78,-99.99,,,0.02,0,weatherlink.com 1.10,2013-04-14 00:12:00,
2013-04-13 20:27:00,39.3,34.0,29.95,West,278,0.0,-999.0,80,-99.99,,,0.02,0,weatherlink.com 1.10,2013-04-14 00:27:00,
2013-04-13 20:42:00,39.1,33.0,29.95,West,278,0.0,-999.0,80,-99.99,,,0.02,0,weatherlink.com 1.10,2013-04-14 00:42:00,
2013-04-13 20:57:00,39.0,34.0,29.95,West,278,0.0,-999.0,81,-99.99,,,0.02,0,weatherlink.com 1.10,2013-04-14 00:57:00,
2013-04-13 21:12:00,38.7,34.0,29.95,West,278,0.0,-999.0,82,-99.99,,,0.02,0,weatherlink.com 1.10,2013-04-14 01:12:00,
2013-04-13 21:42:00,38.4,34.0,29.95,West,278,0.0,-999.0,85,-99.99,,,0.02,0,weatherlink.com 1.10,2013-04-14 01:42:00,
2013-04-13 21:57:00,38.0,34.0,29.95,West,278,0.0,-999.0,86,-99.99,,,0.02,0,weatherlink.com 1.10,2013-04-14 01:57:00,
2013-04-13 22:12:00,37.6,34.0,29.96,West,278,0.0,-999.0,87,-99.99,,,0.02,0,weatherlink.com 1.10,2013-04-14 02:12:00,
2013-04-13 22:27:00,37.6,34.0,29.95,West,278,1.0,-999.0,88,-99.99,,,0.02,0,weatherlink.com 1.10,2013-04-14 02:27:00,
2013-04-13 22:42:00,37.8,34.0,29.95,West,278,0.0,-999.0,87,-99.99,,,0.02,0,weatherlink.com 1.10,2013-04-14 02:42:00,
2013-04-13 22:57:00,37.7,34.0,29.95,WSW,251,0.0,-999.0,87,-99.99,,,0.02,0,weatherlink.com 1.10,2013-04-14 02:57:00,
2013-04-13 23:12:00,37.5,34.0,29.95,SSW,199,1.0,-999.0,86,-99.99,,,0.02,0,weatherlink.com 1.10,2013-04-14 03:12:00,
2013-04-13 23:27:00,38.6,33.0,29.95,SSW,194,1.0,-999.0,80,-99.99,,,0.02,0,weatherlink.com 1.10,2013-04-14 03:27:00,
2013-04-13 23:42:00,39.4,32.0,29.96,WSW,254,2.0,-999.0,76,-99.99,,,0.02,0,weatherlink.com 1.10,2013-04-14 03:42:00,
2013-04-13 23:57:00,39.9,32.0,29.96,West,267,3.0,-999.0,73,-99.99,,,0.02,0,weatherlink.com 1.10,2013-04-14 03:57:00,